{"data":{"norad_id":61922,"epoch":"2026-09-21T08:27:44.727264Z","epoch_age_seconds":111994,"freshness":"FRESH","line1":"1 61922U 24207L   26264.35260101  .00012971  00000+0  47984-3 0  9997","line2":"2 61922  42.9985 260.4179 0002297 285.0544  75.0054 15.27592374104603","mean_motion":15.27592374,"eccentricity":0.0002297,"inclination_deg":42.9985,"raan_deg":260.4179,"arg_perigee_deg":285.0544,"mean_anomaly_deg":75.0054,"bstar":0.00047984,"rev_number":10460,"period_min":94.265985122023,"perigee_km":481.43603814682,"apogee_km":484.58805001767,"semimajor_km":6861.1490440822,"source":"CELESTRAK","updated_at":"2026-09-22T09:00:49.450501Z"}}